Temp
56 56 56 56 57 57 57 58 58 58 58 59 59 59 59 59 58 62 77 84 76 75 83 84 86 80 82 82 76 79 80 81 79 72 72 73 73 74 71 73 70 67 65 65 67 61 58 76 75 65 71 77 77 76
56 56 56 56 56 56 56 56 57 58 58 58 59 59 59 58 58 59 76 85 84 75 80 88 88 88 85 84 81 83 80 78 80 74 76 76 71 75 71 63 74 63 70 66 66 64 74 79 76 79 78 75 76 74
55 55 55 55 55 55 56 57 57 57 58 58 58 59 59 58 58 58 71 79 80 78 81 84 83 88 92 90 92 76 84 83 81 82 75 74 66 73 65 68 70 74 78 68 67 72 74 77 80 78 75 71 76 78
55 55 55 55 55 55 56 57 56 57 58 58 58 58 58 58 58 57 69 81 79 76 72 80 91 84 90 91 87 87 84 85 84 81 75 73 69 76 69 70 68 73 73 69 68 72 74 76 77 77 75 73 77 78
55 55 55 55 55 56 56 56 56 56 57 58 58 58 58 58 57 62 73 81 82 72 68 75 87 90 90 87 84 84 84 81 79 75 73 70 76 74 74 73 70 77 70 67 65 72 69 70 74 77 74 74 74 73
54 55 55 55 55 55 55 56 56 56 56 57 57 57 57 57 56 70 73 81 78 78 70 70 86 82 84 83 81 80 81 80 79 75 74 76 80 73 64 63 73 78 79 77 70 76 75 76 76 78 75 76 77 73
54 55 55 55 55 55 55 55 56 56 56 56 56 56 56 56 62 68 65 68 59 72 70 70 75 82 82 81 81 80 81 78 77 75 73 73 74 72 67 62 72 75 74 74 76 74 69 73 70 77 77 76 74 74
54 54 55 55 55 55 55 55 55 55 56 56 56 56 56 56 57 65 74 58 61 72 74 66 71 75 83 75 74 82 76 77 75 73 74 71 73 73 64 71 72 72 72 72 73 76 74 76 75 73 73 74 71 68
53 54 54 54 55 55 55 55 55 55 55 56 56 56 62 65 71 70 62 60 74 70 65 71 68 67 82 76 79 77 77 68 77 70 71 73 69 64 69 69 69 71 70 70 73 72 72 71 72 72 72 69 65 69
53 53 53 54 54 55 55 55 55 55 55 55 59 68 67 70 59 63 67 67 67 71 69 66 77 70 78 76 72 72 74 69 65 72 74 69 67 71 72 73 72 72 73 74 67 67 67 69 68 67 67 69 69 65
53 53 53 53 54 54 55 54 54 54 56 66 67 69 74 60 73 71 66 65 68 64 70 71 73 71 80 70 69 74 69 70 63 66 65 61 63 66 72 72 74 74 75 75 74 73 72 67 64 65 66 64 65 62
53 53 53 53 54 54 54 54 54 57 62 59 59 66 75 71 67 63 63 67 65 64 71 70 72 75 74 79 71 71 66 66 59 72 64 61 63 70 71 72 73 74 75 73 69 67 68 66 65 65 63 61 59 58
53 52 53 53 53 54 54 54 54 55 57 69 64 65 68 65 47 55 55 63 64 71 73 74 70 75 74 76 71 67 60 61 73 63 60 58 63 68 67 72 72 74 73 72 71 70 66 66 65 62 59 57 56 56
52 52 53 53 54 54 54 54 55 57 58 60 58 40 57 57 62 66 67 68 74 76 74 74 72 71 74 68 68 60 65 68 58 56 58 65 65 68 70 72 71 70 70 66 67 65 62 59 57 60 59 57 56 55
52 53 53 53 53 54 54 54 54 59 58 57 62 47 60 68 74 76 77 75 76 79 77 73 69 72 69 64 67 63 59 56 60 58 63 61 67 68 67 69 69 67 65 65 66 61 58 56 55 55 56 56 55 55
52 52 58 56 56 54 54 54 56 61 62 58 59 58 67 69 70 73 72 71 77 77 77 74 67 62 60 64 60 57 57 57 61 66 70 69 66 66 66 67 67 66 66 66 63 59 56 54 53 53 55 54 54 53
52 54 55 56 55 54 53 54 54 56 59 58 60 67 68 69 68 70 72 72 77 74 64 65 58 58 67 60 60 65 61 62 68 69 73 68 67 66 67 67 66 66 65 63 61 56 53 54 53 52 51 52 53 52
54 54 53 54 54 52 51 52 55 56 54 62 61 65 71 72 70 70 72 74 71 70 66 62 66 60 58 59 62 65 70 73 74 70 73 71 68 68 69 67 66 67 65 63 61 57 53 52 51 51 52 53 53 51
52 51 52 52 52 51 48 49 55 51 59 65 68 70 70 71 68 73 73 72 72 73 66 63 59 60 63 68 67 69 73 66 68 73 72 71 70 69 69 70 63 64 64 63 63 57 53 53 54 54 54 54 51 50
52 52 53 52 51 49 47 49 57 57 56 61 67 66 68 66 69 71 72 72 69 65 60 58 62 67 69 71 71 74 70 71 75 72 67 69 73 71 70 72 70 69 69 62 59 59 61 55 56 59 59 57 52 50
53 55 53 51 50 49 47 49 54 60 61 59 65 63 62 66 66 67 68 72 67 65 63 68 69 73 74 76 72 72 72 76 73 71 68 69 72 74 73 71 74 73 73 68 69 62 62 63 61 66 65 65 62 59
55 56 53 51 47 47 46 52 56 58 58 61 62 63 60 58 60 61 69 65 66 69 71 71 72 74 69 72 75 76 76 75 73 68 56 64 71 73 73 75 74 72 72 71 71 70 70 70 71 71 70 68 66 67
52 52 52 51 45 42 45 59 52 57 51 55 59 54 57 59 64 67 60 67 70 75 76 75 74 75 74 75 75 75 75 74 71 71 71 73 74 74 75 73 75 72 71 71 73 72 71 62 68 71 72 71 69 68
50 45 44 43 48 41 52 47 55 55 54 56 54 53 57 59 64 62 57 64 72 73 75 72 75 74 73 71 73 73 74 73 66 72 73 74 73 72 74 74 75 76 76 76 75 74 73 72 63 73 71 70 69 68
40 40 42 37 45 43 43 49 51 53 52 55 54 54 57 63 56 56 56 65 69 72 70 74 75 75 72 73 74 67 68 65 69 70 73 75 75 75 75 76 76 78 79 76 75 75 75 76 74 73 73 72 69 68
35 42 39 41 43 46 51 48 50 52 54 53 54 58 60 56 53 54 60 67 64 63 61 67 72 74 65 65 59 66 72 63 74 70 70 75 78 76 73 71 71 74 79 78 76 74 74 75 75 74 73 69 54 69
34 38 48 56 54 54 54 58 55 53 52 50 57 54 54 49 53 62 68 68 69 67 65 66 69 76 71 64 60 59 69 74 75 74 76 76 79 80 77 73 68 75 80 78 76 77 75 74 74 73 74 74 74 73
45 45 43 51 52 55 48 50 52 52 54 57 57 52 52 54 53 57 61 58 57 61 65 58 61 62 73 58 73 71 75 76 78 78 79 79 81 81 79 78 79 56 76 78 78 76 71 76 76 74 75 74 75 75
48 51 49 48 51 52 54 53 54 58 58 56 53 53 54 58 60 58 55 55 57 71 59 61 63 76 67 62 78 78 78 77 71 68 67 68 73 76 78 70 72 78 76 77 51 62 74 75 75 76 76 74 74 76
51 59 52 50 48 49 54 61 59 61 62 61 60 59 57 54 56 59 58 58 60 62 71 62 68 77 74 72 71 66 74 78 76 73 68 71 75 80 79 78 76 77 80 79 76 77 50 67 71 75 75 76 75 74
58 57 52 53 53 58 61 64 66 66 64 60 59 51 49 55 59 65 77 77 77 76 75 74 75 78 74 75 74 71 69 74 71 71 72 70 79 76 70 75 80 82 80 79 78 79 79 77 76 76 75 74 74 72
55 52 50 49 54 61 62 60 61 60 61 59 59 57 60 63 62 69 76 78 74 71 65 72 76 78 79 77 80 79 64 76 69 74 74 71 72 76 78 82 84 84 83 80 80 81 79 78 77 76 75 74 74 73
50 50 52 49 50 52 59 58 56 57 60 60 62 64 65 63 60 69 79 81 79 78 76 80 83 83 80 80 74 73 66 79 68 54 48 47 51 61 71 80 82 81 81 79 80 80 78 77 76 75 74 74 73 74
MSLP
1024.83 1024.52 1024.18 1023.86 1023.44 1023.05 1022.67 1022.26 1021.80 1021.31 1020.79 1020.25 1019.77 1019.26 1018.71 1018.08 1017.43 1016.67 1013.78 1012.56 1012.46 1010.56 1008.55 1008.47 1007.90 1007.61 1007.14 1006.99 1006.43 1006.66 1006.42 1005.98 1005.96 1005.64 1005.21 1004.42 1003.90 1004.21 1004.69 1005.10 1005.32 1005.71 1006.10 1006.13 1006.17 1006.35 1006.78 1007.54 1007.48 1007.76 1008.19 1008.26 1008.46 1008.67
1024.62 1024.35 1024.08 1023.80 1023.47 1023.10 1022.68 1022.27 1021.81 1021.35 1020.88 1020.42 1019.95 1019.50 1019.04 1018.53 1017.94 1017.27 1014.10 1012.76 1012.76 1012.03 1009.50 1009.08 1008.79 1008.75 1008.75 1008.48 1007.93 1007.11 1006.93 1006.98 1006.81 1006.64 1005.99 1005.81 1005.49 1005.40 1005.56 1005.78 1006.42 1006.69 1006.84 1007.27 1007.66 1007.41 1007.72 1007.63 1007.91 1008.14 1008.73 1009.01 1008.94 1009.27
1024.50 1024.26 1024.00 1023.72 1023.36 1023.00 1022.61 1022.18 1021.74 1021.27 1020.80 1020.42 1020.03 1019.64 1019.23 1018.82 1018.39 1018.18 1015.89 1013.85 1012.64 1011.00 1009.25 1008.27 1008.03 1008.63 1008.70 1008.65 1008.45 1008.31 1007.28 1007.70 1007.86 1008.32 1008.04 1007.27 1007.17 1007.14 1006.74 1006.41 1006.50 1006.68 1007.01 1007.65 1008.33 1007.87 1008.11 1008.16 1008.17 1008.63 1009.58 1009.60 1009.46 1009.30
1024.37 1024.10 1023.84 1023.59 1023.24 1022.84 1022.39 1022.03 1021.70 1021.24 1020.75 1020.36 1020.01 1019.65 1019.26 1018.90 1018.52 1018.24 1016.21 1014.13 1013.31 1012.11 1009.83 1007.86 1008.22 1008.67 1008.87 1008.74 1009.05 1009.03 1008.81 1008.94 1008.84 1008.89 1008.42 1007.84 1007.50 1007.67 1007.62 1007.72 1007.86 1007.66 1007.92 1008.05 1008.28 1008.32 1008.44 1008.66 1008.62 1009.09 1009.41 1009.53 1009.15 1009.06
1024.15 1023.93 1023.64 1023.36 1023.03 1022.60 1022.20 1021.88 1021.60 1021.22 1020.74 1020.30 1019.99 1019.64 1019.22 1018.83 1018.37 1017.54 1015.78 1014.05 1013.80 1013.66 1011.27 1009.10 1008.13 1008.06 1008.61 1008.97 1009.28 1009.29 1009.17 1008.95 1008.74 1008.60 1008.42 1008.00 1007.74 1007.92 1008.20 1008.25 1007.87 1007.69 1007.83 1008.12 1008.10 1008.61 1009.03 1009.21 1009.46 1009.47 1009.25 1008.99 1009.04 1008.76
1023.85 1023.62 1023.39 1023.11 1022.81 1022.45 1022.11 1021.80 1021.50 1021.12 1020.68 1020.23 1019.88 1019.55 1019.15 1018.74 1018.32 1016.60 1014.19 1014.05 1014.95 1014.40 1012.70 1009.60 1007.86 1008.30 1008.79 1009.29 1009.39 1009.43 1009.33 1009.14 1009.09 1008.89 1008.51 1008.25 1008.25 1008.99 1008.96 1008.56 1008.41 1008.25 1008.40 1008.53 1009.07 1009.26 1009.29 1009.40 1009.50 1009.23 1008.95 1008.67 1008.40 1008.42
1023.54 1023.29 1023.07 1022.83 1022.56 1022.27 1021.98 1021.65 1021.37 1021.02 1020.57 1020.12 1019.72 1019.37 1019.04 1018.76 1018.28 1016.95 1016.82 1016.08 1016.45 1015.53 1013.12 1010.29 1007.83 1008.22 1008.86 1009.18 1009.11 1009.24 1009.38 1009.33 1009.27 1008.99 1008.73 1008.62 1008.58 1009.18 1009.07 1008.78 1008.70 1008.90 1009.41 1009.90 1009.97 1009.99 1009.95 1009.81 1009.33 1008.81 1008.33 1008.32 1008.23 1008.15
1023.28 1023.07 1022.80 1022.53 1022.27 1021.99 1021.72 1021.40 1021.14 1020.80 1020.36 1019.88 1019.46 1019.09 1018.73 1018.36 1017.99 1016.82 1015.56 1016.39 1016.45 1014.80 1012.90 1010.74 1008.21 1008.00 1008.66 1008.38 1008.29 1008.55 1008.76 1009.03 1009.10 1008.94 1008.82 1008.76 1008.70 1008.62 1008.64 1008.81 1009.27 1009.86 1010.11 1010.27 1010.26 1010.13 1009.79 1009.43 1008.93 1008.72 1008.40 1008.06 1007.96 1007.82
1022.93 1022.76 1022.58 1022.33 1021.98 1021.63 1021.37 1021.11 1020.90 1020.49 1020.02 1019.56 1019.09 1018.60 1018.06 1017.24 1015.43 1015.64 1016.11 1016.15 1015.46 1014.94 1012.64 1010.04 1008.25 1007.28 1008.16 1008.18 1007.92 1008.44 1008.75 1008.39 1008.08 1008.06 1008.09 1008.27 1008.22 1008.16 1008.33 1009.05 1009.71 1010.12 1010.34 1010.21 1010.10 1010.04 1009.79 1009.41 1008.95 1008.49 1008.46 1008.38 1008.20 1007.45
1022.58 1022.43 1022.27 1022.04 1021.74 1021.34 1021.01 1020.79 1020.53 1020.10 1019.61 1019.21 1018.66 1016.92 1015.21 1015.26 1015.76 1015.79 1015.97 1014.87 1014.34 1013.31 1012.77 1010.47 1008.59 1007.88 1008.02 1007.66 1008.01 1008.24 1008.08 1007.93 1007.45 1007.06 1007.69 1008.03 1008.01 1008.59 1009.20 1009.65 1010.19 1010.30 1010.29 1010.05 1009.81 1009.55 1009.59 1009.11 1009.09 1009.04 1008.96 1008.49 1008.15 1008.17
1022.28 1022.11 1021.92 1021.73 1021.42 1021.05 1020.76 1020.61 1020.36 1019.87 1018.66 1018.06 1016.66 1015.13 1014.98 1015.56 1015.06 1014.06 1012.93 1012.27 1011.47 1010.85 1010.23 1009.53 1008.64 1007.84 1007.94 1007.89 1008.00 1008.22 1008.10 1007.96 1007.51 1007.68 1008.04 1008.27 1008.26 1009.11 1009.64 1009.91 1010.15 1010.14 1009.99 1009.70 1009.64 1009.51 1009.46 1009.51 1009.39 1009.23 1008.96 1009.07 1008.84 1008.63
1022.00 1021.78 1021.58 1021.41 1021.12 1020.76 1020.58 1020.44 1020.26 1019.76 1018.51 1018.74 1018.55 1016.51 1014.70 1014.04 1013.39 1012.34 1011.22 1010.51 1009.84 1008.65 1008.41 1008.30 1008.29 1008.14 1008.32 1008.63 1008.52 1008.77 1008.52 1008.86 1008.04 1008.18 1008.30 1007.99 1009.20 1009.77 1010.03 1010.14 1010.20 1010.10 1009.77 1009.83 1010.04 1009.96 1009.68 1009.84 1009.76 1009.57 1009.41 1009.46 1009.34 1009.01
1021.70 1021.45 1021.24 1021.05 1020.79 1020.52 1020.40 1020.25 1020.07 1019.79 1019.03 1017.17 1017.31 1015.05 1013.35 1012.89 1012.27 1011.14 1009.56 1008.58 1007.91 1007.73 1007.85 1007.66 1008.15 1008.23 1008.74 1008.95 1008.72 1009.18 1009.26 1008.60 1008.33 1008.59 1008.28 1009.39 1009.93 1010.15 1010.36 1010.36 1010.28 1010.07 1010.04 1009.97 1009.95 1010.06 1010.18 1010.23 1010.23 1010.29 1010.01 1009.89 1009.51 1008.95
1021.37 1021.08 1020.81 1020.60 1020.35 1020.20 1020.13 1020.03 1019.85 1019.58 1019.13 1017.00 1015.64 1014.80 1012.98 1011.36 1010.05 1008.77 1007.83 1007.11 1006.81 1006.91 1007.50 1007.80 1007.97 1008.17 1008.36 1008.93 1009.10 1009.28 1009.18 1008.69 1008.48 1008.10 1008.44 1009.50 1010.18 1010.33 1010.40 1010.62 1010.47 1010.30 1010.38 1010.68 1010.46 1010.84 1011.10 1011.22 1010.96 1010.57 1010.31 1009.96 1009.47 1008.85
1020.93 1020.54 1020.26 1019.95 1019.72 1019.75 1019.80 1019.78 1019.73 1019.35 1018.23 1016.25 1014.43 1012.89 1011.03 1009.68 1008.24 1007.63 1007.30 1007.32 1007.65 1007.35 1007.16 1007.59 1008.36 1008.46 1008.67 1009.12 1009.26 1009.27 1009.16 1008.75 1008.28 1008.53 1009.03 1010.11 1010.56 1010.83 1010.94 1010.80 1010.53 1010.70 1010.96 1010.90 1011.22 1011.74 1011.96 1011.83 1011.32 1010.89 1010.53 1010.12 1009.68 1009.00
1020.55 1019.91 1018.62 1018.94 1019.21 1019.34 1019.47 1019.59 1019.52 1018.87 1017.21 1015.96 1014.38 1012.27 1010.11 1008.70 1007.90 1007.68 1007.96 1007.92 1007.81 1007.81 1007.83 1008.12 1008.60 1008.97 1009.38 1009.01 1008.98 1008.91 1008.62 1007.99 1008.26 1008.77 1009.05 1009.61 1010.31 1010.87 1010.87 1010.69 1010.81 1011.01 1011.06 1011.37 1011.91 1012.34 1012.36 1012.13 1011.75 1011.38 1010.94 1010.48 1009.92 1009.43
1020.40 1019.42 1019.23 1019.07 1019.20 1019.30 1019.40 1019.49 1019.28 1017.95 1016.16 1014.35 1012.43 1011.30 1010.15 1009.13 1008.48 1008.39 1007.93 1008.19 1008.43 1008.04 1008.34 1008.84 1009.09 1009.08 1008.66 1008.54 1008.12 1008.03 1007.98 1008.57 1008.60 1008.61 1008.92 1009.78 1010.20 1010.48 1010.72 1010.87 1010.96 1011.08 1011.43 1011.99 1012.35 1012.67 1012.64 1012.59 1012.33 1011.81 1011.20 1010.79 1010.36 1010.00
1019.82 1019.22 1019.38 1019.25 1019.29 1019.41 1019.51 1019.36 1018.46 1016.53 1014.72 1013.15 1011.85 1010.56 1009.38 1009.20 1008.88 1009.23 1009.12 1009.09 1009.29 1008.84 1009.32 1009.50 1009.42 1008.69 1008.41 1007.85 1007.55 1007.60 1008.30 1007.98 1008.34 1008.95 1008.91 1009.59 1010.22 1010.54 1010.62 1010.67 1010.86 1010.98 1011.49 1012.07 1012.40 1012.82 1012.93 1012.96 1012.60 1012.28 1011.87 1011.40 1010.84 1010.43
1019.69 1019.81 1019.70 1019.51 1019.38 1019.25 1019.18 1018.87 1017.94 1015.84 1013.35 1011.97 1011.02 1010.39 1009.74 1009.34 1009.70 1009.42 1009.58 1009.83 1009.88 1009.83 1010.18 1010.01 1009.55 1008.53 1008.04 1007.75 1007.89 1007.50 1007.69 1008.05 1008.76 1008.44 1008.90 1009.70 1010.21 1010.43 1010.46 1010.27 1010.78 1011.15 1011.56 1012.05 1012.11 1012.78 1013.22 1013.23 1012.86 1012.58 1012.30 1011.71 1011.32 1011.02
1019.77 1019.65 1019.60 1019.60 1019.54 1019.05 1018.65 1018.03 1017.34 1015.32 1013.06 1011.86 1011.09 1010.32 1009.73 1009.61 1009.58 1009.20 1009.03 1009.17 1009.57 1009.75 1009.81 1009.53 1008.93 1008.06 1007.47 1007.91 1007.95 1007.79 1008.21 1008.25 1008.10 1008.33 1009.07 1009.52 1009.79 1009.97 1009.91 1009.71 1010.14 1010.54 1010.68 1011.65 1011.99 1012.17 1012.57 1012.78 1012.61 1012.29 1012.06 1011.79 1011.59 1011.51
1019.12 1018.71 1019.27 1019.45 1019.26 1019.18 1018.60 1017.42 1016.04 1014.04 1012.67 1011.92 1010.91 1010.72 1010.33 1009.84 1009.12 1008.79 1008.53 1008.49 1008.41 1008.36 1008.19 1008.28 1008.25 1007.83 1007.53 1007.37 1007.79 1008.38 1008.11 1008.18 1008.31 1008.83 1009.51 1009.51 1009.71 1009.36 1009.16 1009.81 1009.68 1009.91 1009.79 1010.51 1010.50 1011.48 1011.43 1011.71 1011.82 1011.24 1011.06 1010.64 1010.96 1011.35
1018.53 1018.42 1018.83 1019.24 1018.95 1018.76 1018.24 1017.08 1015.47 1014.54 1013.51 1011.72 1010.89 1010.64 1010.32 1009.83 1009.14 1008.92 1008.65 1007.82 1007.16 1006.97 1007.02 1007.16 1007.25 1007.16 1007.28 1007.28 1007.27 1007.59 1007.91 1008.46 1008.99 1009.49 1009.81 1009.79 1009.45 1009.22 1009.14 1008.99 1009.16 1009.56 1009.95 1010.07 1010.30 1010.45 1010.61 1010.62 1010.24 1010.27 1010.04 1010.03 1010.05 1010.24
1018.96 1018.89 1018.50 1018.49 1018.56 1018.05 1016.87 1015.68 1014.93 1013.70 1012.76 1011.39 1010.60 1010.41 1009.90 1009.35 1008.72 1008.51 1007.97 1007.08 1006.33 1005.93 1005.87 1006.01 1006.33 1006.72 1006.90 1007.06 1007.40 1007.75 1008.12 1008.40 1008.88 1009.50 1009.74 1009.52 1009.39 1009.46 1009.41 1009.42 1009.41 1009.57 1009.82 1010.10 1010.21 1010.25 1010.37 1010.28 1010.14 1009.99 1009.86 1009.70 1009.77 1009.98
1019.18 1018.86 1018.19 1017.79 1017.29 1016.72 1015.83 1015.12 1013.90 1012.89 1012.14 1010.94 1010.53 1009.82 1009.16 1008.77 1008.59 1007.73 1007.05 1006.06 1005.36 1005.35 1004.93 1005.31 1005.70 1006.11 1006.56 1007.16 1007.17 1007.39 1007.78 1008.27 1008.82 1009.29 1009.40 1008.90 1009.02 1009.38 1009.35 1009.46 1009.54 1009.52 1009.62 1009.64 1009.66 1009.84 1009.94 1010.10 1010.05 1009.83 1009.81 1009.87 1009.70 1009.64
1018.92 1018.34 1017.80 1017.06 1016.52 1015.84 1014.79 1013.12 1012.39 1011.46 1010.81 1010.27 1009.86 1009.44 1008.81 1008.18 1007.89 1007.41 1006.63 1005.56 1005.38 1005.08 1005.38 1005.18 1005.37 1005.64 1005.86 1006.42 1006.75 1007.53 1007.73 1008.58 1008.74 1009.10 1009.04 1008.76 1008.81 1009.02 1009.04 1009.10 1009.18 1009.18 1009.24 1009.36 1009.42 1009.40 1009.39 1009.35 1009.45 1009.64 1009.63 1009.45 1009.65 1009.89
1017.70 1017.04 1016.50 1015.64 1014.98 1014.17 1012.63 1011.28 1010.91 1010.38 1010.05 1009.78 1009.31 1008.98 1008.66 1008.21 1007.57 1006.54 1005.85 1005.43 1005.26 1005.49 1006.39 1005.82 1005.24 1005.23 1006.59 1006.83 1007.74 1008.33 1008.10 1008.85 1008.60 1008.96 1009.04 1008.58 1008.27 1008.37 1008.76 1009.18 1009.39 1009.39 1009.28 1009.40 1009.58 1009.63 1009.58 1009.45 1009.34 1009.26 1009.35 1009.62 1009.89 1009.74
1016.64 1015.87 1014.87 1013.87 1013.12 1012.24 1011.17 1010.30 1010.21 1009.90 1009.36 1009.18 1008.62 1008.65 1008.55 1007.86 1006.69 1005.64 1005.47 1005.70 1005.63 1005.64 1005.85 1006.56 1006.05 1005.20 1006.65 1007.77 1008.16 1008.87 1008.49 1008.25 1008.34 1008.33 1008.64 1008.49 1008.04 1008.30 1008.99 1009.49 1009.88 1009.62 1009.50 1009.54 1009.65 1009.62 1009.73 1009.66 1009.54 1009.60 1009.50 1009.47 1009.38 1009.48
1015.22 1014.62 1013.66 1012.43 1011.95 1011.40 1011.12 1010.54 1009.62 1009.17 1008.84 1008.81 1008.81 1008.37 1007.89 1007.20 1007.10 1007.25 1007.17 1006.84 1006.50 1006.98 1006.11 1006.76 1006.86 1006.84 1006.70 1007.52 1007.42 1008.10 1008.00 1008.38 1008.54 1008.46 1008.27 1008.35 1008.07 1008.43 1009.10 1009.38 1009.53 1009.98 1009.92 1009.96 1009.89 1009.91 1010.00 1009.70 1009.62 1009.60 1009.51 1009.43 1009.30 1009.46
1013.64 1012.96 1012.92 1012.02 1011.42 1010.92 1010.11 1009.52 1009.13 1008.81 1008.95 1008.91 1008.72 1008.48 1008.52 1008.54 1008.44 1008.69 1008.19 1008.05 1008.27 1006.99 1006.06 1006.84 1007.00 1006.73 1006.83 1007.20 1006.84 1007.50 1007.83 1007.97 1008.30 1008.31 1008.43 1008.35 1008.24 1008.55 1009.22 1009.69 1009.72 1009.62 1009.82 1010.12 1010.29 1010.22 1010.11 1010.03 1010.13 1009.92 1009.67 1009.69 1009.54 1009.56
1012.19 1011.56 1011.58 1011.36 1011.01 1010.24 1009.54 1008.81 1008.56 1008.90 1008.92 1009.10 1009.31 1009.42 1009.32 1009.14 1008.24 1008.20 1007.61 1007.83 1005.67 1005.72 1005.89 1006.80 1006.31 1005.71 1006.08 1006.30 1007.06 1007.62 1007.74 1007.96 1008.24 1008.47 1008.58 1008.27 1008.06 1008.41 1008.96 1009.02 1008.90 1008.74 1008.84 1009.29 1009.77 1010.00 1010.46 1010.45 1009.90 1009.83 1009.67 1009.42 1009.37 1009.53
1011.23 1011.04 1011.02 1010.74 1009.95 1009.09 1008.49 1008.35 1008.15 1007.99 1008.25 1008.69 1009.14 1009.60 1009.07 1008.78 1007.57 1005.77 1004.49 1004.68 1005.05 1005.30 1005.64 1005.55 1005.51 1005.50 1005.80 1005.87 1006.38 1007.27 1007.49 1008.23 1008.60 1008.79 1009.19 1009.38 1008.44 1008.83 1009.54 1009.22 1008.82 1008.46 1008.46 1008.93 1009.16 1009.04 1009.22 1009.15 1009.43 1009.42 1009.71 1009.70 1009.92 1009.89
1011.07 1010.93 1010.89 1010.45 1009.64 1008.78 1008.64 1008.27 1007.70 1007.49 1007.47 1007.69 1007.89 1008.30 1007.90 1006.78 1005.87 1004.76 1004.15 1004.05 1004.63 1004.91 1005.20 1005.18 1005.04 1004.84 1004.95 1005.32 1005.60 1006.38 1007.25 1007.68 1008.47 1008.78 1009.38 1009.44 1009.54 1009.23 1008.97 1008.78 1008.39 1008.17 1008.12 1008.42 1008.88 1008.79 1008.92 1009.09 1009.37 1009.66 1009.68 1009.99 1010.04 1010.27
1011.37 1011.19 1010.83 1010.72 1010.12 1009.06 1007.93 1007.82 1007.37 1006.88 1006.50 1006.49 1006.41 1006.22 1006.06 1005.92 1005.46 1004.30 1003.84 1003.68 1003.73 1003.77 1004.05 1004.08 1003.93 1003.90 1004.29 1004.82 1005.74 1006.45 1006.90 1007.35 1008.03 1008.85 1009.28 1009.52 1009.59 1009.39 1009.53 1009.08 1008.95 1008.95 1008.77 1009.18 1008.89 1008.81 1009.03 1009.25 1009.65 1009.98 1010.19 1010.36 1010.39 1010.36
Wind_Speed
11 13 13 15 15 14 16 17 16 17 17 17 18 19 19 21 22 13 8 8 7 7 6 7 7 8 6 4 8 7 6 6 6 6 7 8 5 2 3 5 8 6 6 8 8 11 10 8 8 3 7 8 11 12
12 13 14 14 14 15 16 17 15 14 15 16 16 17 17 18 20 17 7 8 7 5 9 8 7 4 4 7 7 6 5 4 6 6 5 4 7 3 6 7 5 4 5 6 5 9 11 7 4 3 9 8 9 13
11 12 13 14 14 15 15 15 15 15 14 15 15 16 16 16 17 13 7 9 9 7 10 9 8 5 7 6 5 5 1 7 2 5 6 4 3 5 7 6 9 4 4 3 6 5 12 14 12 10 11 10 20 14
10 11 12 14 14 15 14 13 14 15 14 14 15 15 16 15 15 14 8 7 7 6 6 9 6 4 2 3 3 7 7 3 6 2 6 5 6 3 5 7 6 8 7 6 10 13 8 9 6 9 9 10 18 17
10 11 12 13 14 14 14 13 13 14 15 13 14 14 15 16 16 12 8 5 4 6 7 7 5 10 6 6 4 5 7 7 4 5 5 6 5 3 4 8 8 6 4 6 10 12 9 11 13 14 17 17 16 17
12 11 11 11 12 14 14 13 13 14 15 15 14 14 14 15 16 8 5 5 9 8 5 5 6 5 3 2 4 5 6 6 4 5 4 4 3 1 4 6 10 12 13 10 8 12 14 12 13 16 17 18 21 16
13 12 11 11 11 12 13 14 13 15 15 15 14 13 13 12 8 5 6 5 10 6 5 6 4 6 4 5 5 5 6 5 5 6 6 8 7 4 6 10 10 8 11 10 9 12 13 15 15 18 18 19 15 16
10 12 12 12 12 13 12 13 14 15 16 16 14 14 14 15 15 8 2 9 6 5 5 5 5 6 8 5 5 4 4 6 5 7 5 7 8 7 7 3 3 6 6 8 10 14 17 19 17 16 17 13 19 16
9 11 12 13 13 12 13 12 14 16 16 16 16 16 7 5 5 5 4 4 4 5 6 4 8 4 4 5 1 3 2 5 4 9 10 7 8 6 4 6 3 4 8 11 14 14 15 20 21 18 20 18 19 18
9 10 12 13 14 14 12 11 14 16 17 14 8 6 5 5 6 6 4 5 7 6 5 6 8 3 5 6 5 3 5 5 5 3 5 5 7 8 8 6 4 6 10 14 14 15 14 18 17 17 18 17 19 18
9 10 11 13 15 15 9 10 13 17 13 6 6 3 5 4 4 5 4 5 6 5 6 7 11 6 4 4 3 3 3 3 4 3 2 3 3 6 3 3 4 8 13 15 15 17 17 14 15 14 17 17 18 19
11 11 11 13 14 13 9 10 12 7 3 7 6 8 4 4 5 5 5 5 4 6 6 7 6 6 4 1 4 2 4 2 4 2 4 4 5 5 3 6 9 13 14 15 12 14 15 12 13 15 15 15 15 16
11 12 12 13 14 11 9 9 12 9 14 8 5 6 2 3 3 6 7 4 5 4 5 6 7 3 4 3 1 2 3 5 3 2 4 4 3 4 3 7 12 14 15 16 18 16 13 18 17 15 14 11 13 14
12 14 14 15 13 10 8 8 9 6 4 5 4 3 6 6 6 7 9 4 6 4 8 7 5 3 3 3 1 2 4 3 4 4 1 3 1 2 5 8 11 15 17 14 13 17 17 16 14 14 12 11 12 13
13 15 16 15 12 10 8 7 4 3 4 4 6 5 9 10 9 1 4 3 3 6 3 5 6 4 2 3 3 2 2 5 4 4 4 5 3 5 7 9 12 14 11 9 13 13 13 13 12 12 12 11 12 12
14 19 7 7 5 5 4 3 3 3 3 4 6 7 10 8 8 7 4 5 3 4 5 2 2 1 5 3 5 5 4 4 4 1 4 6 6 4 8 11 11 8 8 10 11 11 10 12 13 11 11 10 11 12
11 3 5 1 4 1 6 1 2 6 5 6 6 9 13 6 4 4 4 6 2 4 1 2 4 6 4 3 5 7 5 7 7 7 6 7 5 7 8 9 8 7 9 9 10 10 10 10 10 10 13 13 12 12
4 6 14 2 5 4 1 1 5 5 7 8 8 10 6 9 5 3 4 2 2 4 2 3 5 3 4 6 7 5 5 3 3 3 3 7 7 6 7 6 6 7 8 8 10 10 8 9 10 9 11 11 10 12
5 7 9 7 3 1 3 3 4 5 6 7 8 9 7 4 2 3 4 3 4 3 1 1 5 7 9 5 6 5 2 5 4 3 9 8 8 5 4 6 9 9 8 8 9 7 4 6 6 7 7 8 8 9
9 10 7 3 5 2 3 3 3 6 6 4 6 9 8 4 5 7 8 8 8 7 5 4 9 10 7 2 3 6 3 5 4 4 4 4 5 4 6 3 5 6 5 12 5 8 6 3 5 6 4 8 9 9
5 6 6 4 2 1 2 3 5 6 4 6 8 5 5 8 9 11 10 9 9 11 11 10 11 11 10 7 2 4 1 2 4 5 4 5 5 4 2 10 5 3 4 5 5 7 4 1 1 1 3 6 8 9
2 7 3 4 2 3 3 4 5 4 5 7 6 4 6 7 7 8 10 11 11 10 10 10 10 9 6 9 7 7 4 1 5 4 2 4 4 3 4 4 7 7 6 6 6 6 7 8 5 8 9 6 5 7
5 1 2 4 3 4 5 5 6 4 5 4 6 5 6 9 9 7 7 10 11 11 10 11 10 9 8 6 1 6 6 4 6 3 4 3 3 3 3 4 5 6 6 6 6 7 7 5 6 8 8 8 9 9
5 2 4 4 8 4 4 4 5 5 5 8 4 5 6 4 4 5 7 11 10 4 7 7 9 7 9 8 9 7 8 5 6 4 5 5 8 5 5 6 5 5 5 4 5 5 6 7 6 8 8 9 10 10
4 5 4 5 4 5 6 7 12 8 14 10 11 7 4 4 8 8 8 10 8 7 3 6 7 9 9 9 8 6 8 5 4 5 5 6 6 5 3 4 4 5 5 4 4 5 5 5 6 7 8 8 12 12
4 4 5 8 4 7 7 4 7 10 9 6 5 3 4 7 13 6 10 11 1 3 2 6 6 7 9 10 7 3 3 3 6 6 6 7 8 7 7 5 4 2 4 4 5 6 6 8 7 8 7 5 5 11
4 6 7 7 6 6 6 6 4 4 6 6 5 6 4 6 8 4 0 5 3 3 9 8 8 6 10 8 8 7 10 4 3 5 8 7 4 8 7 5 2 3 2 3 4 4 5 3 4 7 8 8 7 8
4 4 6 5 9 6 3 5 4 5 5 2 2 7 5 4 6 4 5 6 5 5 5 8 5 5 5 4 11 10 6 7 7 9 6 3 4 8 6 5 6 3 2 4 5 3 2 5 5 4 3 5 4 10
6 5 5 6 4 4 5 4 4 3 3 2 3 3 5 6 4 3 2 4 13 15 7 7 7 9 5 5 9 8 7 5 9 11 10 5 6 6 6 3 4 6 5 6 1 4 6 6 8 8 6 2 4 6
7 6 3 2 3 4 6 6 0 2 1 1 2 2 3 2 6 7 11 8 6 7 9 7 5 8 9 9 9 5 1 5 8 9 9 8 6 8 6 5 4 4 8 8 6 7 2 5 7 6 2 1 6 8
2 3 4 6 6 7 4 5 6 6 4 3 3 0 4 6 9 12 8 9 6 8 3 4 5 5 6 10 9 11 8 8 7 7 4 7 4 10 1 6 3 6 6 6 8 7 6 4 3 7 7 6 7 8
3 4 4 7 9 7 8 7 9 8 8 8 9 10 15 10 6 4 4 6 10 8 6 7 7 6 5 6 11 11 12 7 7 7 9 7 7 4 5 4 5 4 3 8 5 1 6 7 7 8 6 6 5 7
6 6 6 4 4 5 6 6 4 5 7 8 9 9 8 8 8 3 2 4 5 4 6 10 10 11 10 8 12 7 7 12 12 12 14 11 4 3 4 3 3 6 8 3 4 4 7 8 8 6 6 5 4 4
Wind_Direction
332 332 332 335 335 340 340 336 337 339 340 341 344 347 349 348 350 349 303 35 355 320 338 359 336 323 318 272 290 61 259 188 269 253 269 277 284 21 327 294 293 275 278 282 291 282 278 44 309 337 358 326 348 338
324 328 326 326 328 333 329 329 330 331 336 336 339 342 345 345 347 344 298 356 336 265 325 319 296 341 308 338 325 335 343 291 9 316 347 325 306 282 272 274 108 255 273 308 330 328 331 346 305 317 4 322 332 336
336 333 331 331 332 328 325 324 326 326 328 333 334 337 339 340 342 350 304 312 320 263 266 221 196 147 254 249 304 289 61 21 314 30 315 315 319 319 287 288 339 195 244 241 310 240 328 316 326 12 6 347 317 318
328 330 332 330 325 322 319 320 325 327 325 328 329 330 331 332 331 335 308 322 328 305 275 132 125 188 39 22 335 323 323 289 288 283 270 270 279 95 300 334 313 303 333 294 290 272 295 287 329 327 314 281 289 322
314 317 323 328 327 327 322 322 325 326 326 323 324 324 323 326 323 304 269 283 335 332 328 318 292 174 177 217 240 258 259 264 249 234 236 252 270 312 275 266 268 276 342 303 310 344 353 345 338 316 306 314 308 292
305 304 307 318 321 326 328 328 329 324 322 323 317 317 317 321 327 290 195 105 21 342 284 280 102 174 126 213 241 242 248 252 267 284 278 266 233 119 292 281 316 323 326 356 340 332 321 314 289 304 296 293 316 314
309 306 299 301 314 320 316 316 325 322 315 314 310 306 306 310 311 303 353 358 333 305 258 274 230 114 180 239 212 222 218 241 253 263 254 262 273 181 257 269 308 358 27 8 344 326 312 304 293 287 304 310 301 303
310 314 322 308 308 310 309 309 311 314 310 309 301 298 297 290 275 264 165 221 269 266 274 269 262 169 175 202 207 197 204 205 224 253 273 272 273 224 250 277 24 29 352 330 314 308 311 308 311 310 291 315 314 309
301 311 313 318 318 308 305 305 312 308 308 304 299 291 283 217 238 76 135 208 238 293 304 240 272 86 164 254 138 158 250 271 249 235 227 238 255 247 345 30 50 358 329 309 312 306 311 316 304 318 328 322 304 309
306 314 313 315 318 314 309 307 312 309 303 299 276 216 213 53 131 153 174 200 192 199 226 259 279 268 206 182 199 236 186 234 274 265 131 233 250 65 57 56 13 327 320 310 300 310 302 311 317 316 314 311 321 330
307 309 313 312 315 315 306 307 313 315 274 218 235 13 88 126 238 216 245 216 189 213 202 225 249 256 133 291 352 7 342 283 268 72 4 196 250 108 116 12 339 325 318 315 336 328 335 326 321 323 333 327 318 317
305 305 310 314 315 314 304 308 316 290 326 331 293 271 258 229 229 235 217 205 241 235 145 204 192 228 108 327 269 69 268 157 265 46 243 256 103 124 45 354 329 329 321 338 334 323 326 353 338 328 331 330 324 314
301 302 300 308 307 300 295 305 313 296 288 267 215 245 193 211 3 220 203 213 213 186 140 184 152 200 139 229 232 164 287 242 300 217 266 66 120 64 28 333 332 327 348 334 332 333 353 348 340 339 324 316 312 308
300 298 297 302 291 279 282 302 307 286 273 240 223 278 233 204 228 214 256 20 79 179 150 220 128 257 130 184 320 242 241 280 266 299 231 94 302 356 2 341 336 340 345 335 349 359 351 341 333 334 336 320 321 323
300 296 295 287 259 255 262 284 269 247 271 265 249 230 222 255 293 169 315 86 123 279 187 171 161 209 162 175 211 233 257 241 215 7 84 158 110 9 351 345 349 350 345 352 8 357 346 342 336 333 338 343 332 330
309 299 285 233 231 216 206 202 186 257 254 250 245 262 274 269 234 188 194 250 203 190 222 212 133 337 184 236 198 223 263 243 137 318 326 120 79 11 358 354 356 347 341 16 21 4 356 353 344 346 345 347 350 350
300 257 356 152 172 186 149 195 206 236 234 238 232 232 274 284 320 6 325 89 317 273 125 26 181 204 216 243 221 222 234 0 2 18 41 86 62 26 8 359 339 355 45 37 26 22 6 355 350 355 360 354 0 355
246 28 6 135 139 139 121 234 252 249 238 239 255 263 254 244 210 240 295 55 262 267 94 215 319 247 250 257 270 103 250 241 87 34 322 74 56 28 350 336 320 73 64 52 47 38 14 5 7 4 359 354 6 3
332 328 331 343 314 212 182 217 246 275 251 255 247 269 262 256 348 268 234 225 264 309 336 223 251 235 245 258 324 337 253 76 290 343 84 79 51 13 325 304 101 93 84 68 51 57 36 8 18 25 16 16 15 11
279 278 262 292 330 224 213 231 240 268 273 302 276 273 269 271 283 249 237 218 207 215 206 232 247 255 265 171 201 283 1 324 295 334 97 65 21 5 289 343 79 111 128 107 98 77 84 46 44 37 21 56 43 29
216 188 156 170 226 257 291 294 243 256 261 277 283 300 281 282 238 237 235 237 223 230 236 223 237 251 266 302 12 34 335 310 332 58 37 5 338 317 326 121 110 75 100 121 90 145 121 77 206 200 19 28 92 68
105 169 137 178 256 189 258 237 269 315 261 268 266 272 248 263 239 229 243 254 241 234 232 234 245 255 254 254 248 229 229 184 93 119 213 203 246 36 16 47 76 74 57 63 69 56 56 36 23 47 36 89 63 59
257 121 223 173 200 213 250 223 241 233 251 263 239 213 215 235 242 257 231 242 243 235 231 221 220 225 256 287 266 183 213 186 150 167 188 169 98 102 91 76 86 81 83 80 61 53 50 20 67 48 36 46 69 56
93 259 191 214 204 212 244 214 236 215 246 237 228 234 255 243 281 260 256 242 237 281 242 200 209 209 196 213 234 198 169 178 135 170 209 218 141 155 146 136 119 99 93 88 106 114 110 94 52 48 72 60 41 62
213 213 207 204 236 219 223 215 216 231 231 234 238 241 251 238 220 239 251 259 229 221 268 180 196 208 200 181 201 93 94 110 154 182 216 241 125 158 134 89 79 93 95 76 81 66 61 72 107 89 55 57 82 62
223 210 216 194 208 213 229 221 208 210 223 216 233 228 239 252 249 241 238 249 216 109 141 253 202 188 73 75 69 78 152 163 175 176 226 246 183 161 148 138 121 86 79 85 76 40 23 27 28 49 86 116 95 75
222 229 233 204 240 258 244 246 256 265 200 217 233 214 225 238 228 203 101 4 128 158 152 225 257 150 128 146 135 188 241 126 209 179 204 247 187 106 103 109 55 27 338 50 25 58 19 30 44 43 31 45 50 89
257 228 240 243 223 234 254 276 248 232 224 227 231 216 224 268 10 0 360 332 292 324 66 60 334 12 110 346 173 179 148 137 175 187 185 210 153 116 111 167 140 152 345 19 356 59 347 7 358 111 77 58 64 92
233 202 219 248 255 249 250 247 249 309 354 308 288 289 344 353 1 313 318 210 269 232 120 153 189 201 97 285 130 152 152 162 169 182 184 192 175 148 133 102 218 225 195 164 134 22 46 18 5 5 41 59 315 88
257 229 226 218 231 233 240 246 74 223 149 259 24 322 280 280 254 239 261 254 324 65 94 147 211 190 165 150 135 119 172 115 161 186 200 215 170 148 146 214 249 284 150 167 156 165 192 251 254 249 21 337 41 90
306 205 222 228 250 254 286 271 231 232 205 236 169 225 250 236 283 269 228 135 130 135 161 129 167 175 244 175 158 172 168 150 192 218 266 305 4 98 242 264 246 233 144 154 178 210 179 144 136 74 63 65 61 37
249 241 240 261 272 303 328 283 280 263 254 227 204 205 240 251 289 294 233 165 164 154 195 212 217 227 227 201 177 142 147 160 152 166 191 229 241 221 227 238 241 352 74 88 67 165 78 74 60 39 75 67 76 107
233 245 269 300 283 252 226 202 240 249 222 219 226 232 243 248 259 302 10 242 246 232 195 208 217 210 190 133 119 131 176 157 135 118 86 87 86 5 323 12 16 311 91 148 235 57 95 93 88 78 74 54 33 33